Tracking 30701 objects as of 14-Jun-2025
HD Live streaming from Space Station
objects crossing your sky now

HELLAS-SAT 2

Track HELLAS-SAT 2 now!
HELLAS-SAT 2 is classified as:


NORAD ID: 27811
Int'l Code: 2003-020A
Perigee: 35,779.7 km
Apogee: 35,808.0 km
Inclination: 6.4 °
Period: 1,436.1 minutes
Semi major axis: 42164 km
RCS: 15.8489 m2 (large)
Launch date: May 13, 2003
Source: Greece (GREC)
Launch site: AIR FORCE EASTERN TEST RANGE (AFETR)

30 Ku-band; television broadcasting services for the 2004 Summer Olympic Games in Athens.
Your satellite tracking list
Your tracking list is empty




NASA's NSSDC Master Catalog

Two Line Element Set (TLE):
1 27811U 03020A   25164.54302522 -.00000072  00000-0  00000-0 0  9995
2 27811   6.4336  72.2918 0003359  18.2772 357.0035  1.00271466 39157
Source of the keplerian elements: AFSPC